This demonstration page uses our WeatherBlox Daily Observations layout. Learn more.

Left ArrowRight Arrow

34.02893, -84.19858

Hourly Observations for February 9, 2021

Temp ( °F °C ) Dew Point ( °F °C ) Humidity (%) Winds ( mph kmh ) Pressure ( in mb ) Visibility ( mi km ) Precip ( " mm )
12:53 am 00:53 Cloudy 50 10 42 5.6 74 74 ENE 3 6 30.18 1022 10 16 0.00 0.00
1:53 am 01:53 Cloudy 51 10.6 44 6.7 77 77 Calm 30.16 1021 10 16 0.00 0.00
2:46 am 02:46 Mostly Cloudy 50 10 45 7.2 83 83 VRB 3 6 30.16 1021 10 16 0.00 0.00
2:53 am 02:53 Mostly Cloudy 50 10 45 7.2 83 83 Calm 30.15 1021 10 16 0.00 0.00
3:23 am 03:23 Cloudy 50 10 44 6.7 80 80 Calm 30.16 1021 10 16 0.00 0.00
3:33 am 03:33 Mostly Cloudy 49 9.4 44 6.7 83 83 Calm 30.16 1021 10 16 0.00 0.00
3:46 am 03:46 Mostly Cloudy 49 9.4 44 6.7 83 83 ESE 3 6 30.16 1021 10 16 0.00 0.00
3:53 am 03:53 Mostly Cloudy 49 9.4 44 6.7 83 83 E 3 6 30.15 1021 10 16 0.00 0.00
4:02 am 04:02 Mostly Cloudy 48 8.9 44 6.7 86 86 Calm 30.17 1022 10 16 0.00 0.00
4:22 am 04:22 Mostly Cloudy 48 8.9 44 6.7 86 86 VRB 5 7 30.13 1020 10 16 0.00 0.00
4:53 am 04:53 Cloudy 49 9.4 44 6.7 83 83 Calm 30.14 1021 10 16 0.00 0.00
5:53 am 05:53 Cloudy 49 9.4 44 6.7 83 83 E 5 7 30.13 1020 10 16 0.00 0.00
6:44 am 06:44 Cloudy 49 9.4 43 6.1 80 80 Calm 30.15 1021 10 16 0.00 0.00
6:53 am 06:53 Cloudy 49 9.4 43 6.1 80 80 ENE 3 6 30.16 1021 10 16 0.00 0.00
7:53 am 07:53 Cloudy 49 9.4 45 7.2 86 86 SE 3 6 30.18 1022 10 16 0.00 0.00
8:53 am 08:53 Cloudy 49 9.4 46 7.8 90 90 Calm 30.18 1022 9 14 0.00 0.00
9:44 am 09:44 Cloudy with Mist and Fog 48 8.9 46 7.8 93 93 VRB 3 6 30.20 1023 2 3 0.00 0.00
9:53 am 09:53 Cloudy with Mist and Fog 49 9.4 47 8.3 93 93 Calm 30.19 1022 3 5 0.00 0.00
10:53 am 10:53 Cloudy with Mist and Fog 51 10.6 47 8.3 86 86 N 5 7 30.19 1022 6 10 0.00 0.00
11:53 am 11:53 Cloudy with Mist and Fog 53 11.7 49 9.4 86 86 Calm 30.17 1022 6 10 0.00 0.00
12:19 pm 12:19 Cloudy 55 12.8 49 9.4 80 80 Calm 30.15 1021 7 11 0.00 0.00
12:53 pm 12:53 Mostly Cloudy 57 13.9 50 10 78 78 Calm 30.13 1020 8 13 0.00 0.00
1:00 pm 13:00 Mostly Sunny 57 13.9 50 10 78 78 Calm 30.13 1020 9 14 0.00 0.00
1:53 pm 13:53 Sunny 60 15.6 51 10.6 72 72 Calm 30.10 1019 10 16 0.00 0.00
2:53 pm 14:53 Partly Cloudy 63 17.2 51 10.6 65 65 Calm 30.09 1019 10 16 0.00 0.00
3:53 pm 15:53 Cloudy 63 17.2 51 10.6 65 65 W 7 11 30.10 1019 10 16 0.00 0.00
4:53 pm 16:53 Cloudy 63 17.2 51 10.6 65 65 NNW 7 11 30.11 1020 10 16 0.00 0.00
5:53 pm 17:53 Mostly Cloudy 61 16.1 50 10 67 67 VRB 3 6 30.12 1020 10 16 0.00 0.00
6:53 pm 18:53 Cloudy 56 13.3 50 10 81 81 Calm 30.14 1021 10 16 0.00 0.00
7:53 pm 19:53 Clear 55 12.8 49 9.4 80 80 Calm 30.15 1021 10 16 0.00 0.00
8:53 pm 20:53 Clear 52 11.1 49 9.4 89 89 Calm 30.16 1021 9 14 0.00 0.00
9:53 pm 21:53 Clear 49 9.4 47 8.3 93 93 Calm 30.17 1022 8 13 0.00 0.00
10:53 pm 22:53 Clear with Mist and Fog 47 8.3 46 7.8 97 97 Calm 30.17 1022 6 10 0.00 0.00
11:03 pm 23:03 Clear with Mist and Fog 46 7.8 46 7.8 100 100 Calm 30.17 1022 2 2 0.00 0.00
11:43 pm 23:43 Clear with Mist and Fog 45 7.2 45 7.2 100 100 Calm 30.17 1022 3 5 0.00 0.00
11:53 pm 23:53 Clear with Mist and Fog 44 6.7 44 6.7 100 100 Calm 30.16 1021 1 2 0.00 0.00

Powered by AerisWeather